<?xml version="1.0" encoding="UTF-8" standalone="no" ?>
<gpx xmlns="http://www.topografix.com/GPX/1/1" xmlns:xsi="http://www.w3.org/2001/XMLSchema-instance" xsi:schemaLocation="http://www.topografix.com/GPX/1/1 http://www.topografix.com/GPX/1/1/gpx.xsd" version="1.1" creator="VisuGPX - https://www.visugpx.com">
  <metadata>
    <name>Source du Lunain</name>
    <desc><![CDATA[A partir de la Belliole, en traversant Courtoin et Villeneuve-la-Dondagre, le circuit passe à l\'étang du Batardeau, source du Lunain]]></desc>
  </metadata>
  <trk>
    <name><![CDATA[SL]]></name>
    <trkseg>
      <trkpt lat="48.14592" lon="3.09016">
        <ele>163.601257</ele>
        <time>2009-10-20T18:00:25Z</time>
      </trkpt>
      <trkpt lat="48.14597" lon="3.08848">
        <ele>162</ele>
        <time>2009-10-20T18:00:25Z</time>
      </trkpt>
      <trkpt lat="48.14578" lon="3.08747">
        <ele>160.981064</ele>
      </trkpt>
      <trkpt lat="48.14617" lon="3.08653">
        <ele>160</ele>
        <time>2009-10-20T18:00:25Z</time>
      </trkpt>
      <trkpt lat="48.1462" lon="3.08536">
        <ele>161.348755</ele>
        <time>2009-10-20T18:00:25Z</time>
      </trkpt>
      <trkpt lat="48.14649" lon="3.08452">
        <ele>162</ele>
        <time>2009-10-20T18:00:25Z</time>
      </trkpt>
      <trkpt lat="48.14849" lon="3.08599">
        <ele>159.448746</ele>
      </trkpt>
      <trkpt lat="48.1492" lon="3.08661">
        <ele>158.548752</ele>
        <time>2009-10-20T18:00:25Z</time>
      </trkpt>
      <trkpt lat="48.1504" lon="3.08612">
        <ele>159</ele>
        <time>2009-10-20T18:00:25Z</time>
      </trkpt>
      <trkpt lat="48.15081" lon="3.08787">
        <ele>156.698746</ele>
        <time>2009-10-20T18:00:25Z</time>
      </trkpt>
      <trkpt lat="48.15138" lon="3.08731">
        <ele>157.548752</ele>
        <time>2009-10-20T18:00:25Z</time>
      </trkpt>
      <trkpt lat="48.15268" lon="3.08669">
        <ele>156</ele>
        <time>2009-10-20T18:00:25Z</time>
      </trkpt>
      <trkpt lat="48.15355" lon="3.08502">
        <ele>159.098618</ele>
        <time>2009-10-20T18:00:25Z</time>
      </trkpt>
      <trkpt lat="48.15549" lon="3.08357">
        <ele>161</ele>
        <time>2009-10-20T18:00:25Z</time>
      </trkpt>
      <trkpt lat="48.15593" lon="3.08466">
        <ele>161</ele>
        <time>2009-10-20T18:00:25Z</time>
      </trkpt>
      <trkpt lat="48.15751" lon="3.08488">
        <ele>158</ele>
        <time>2009-10-20T18:00:25Z</time>
      </trkpt>
      <trkpt lat="48.15829" lon="3.08539">
        <ele>156.898758</ele>
      </trkpt>
      <trkpt lat="48.15862" lon="3.08617">
        <ele>155</ele>
        <time>2009-10-20T18:00:25Z</time>
      </trkpt>
      <trkpt lat="48.15929" lon="3.09095">
        <ele>155.367432</ele>
        <time>2009-10-20T18:00:25Z</time>
      </trkpt>
      <trkpt lat="48.15994" lon="3.09056">
        <ele>158</ele>
        <time>2009-10-20T18:00:25Z</time>
      </trkpt>
      <trkpt lat="48.16061" lon="3.09111">
        <ele>161</ele>
        <time>2009-10-20T18:00:25Z</time>
      </trkpt>
      <trkpt lat="48.16113" lon="3.09205">
        <ele>162.788681</ele>
        <time>2009-10-20T18:00:25Z</time>
      </trkpt>
      <trkpt lat="48.162" lon="3.09281">
        <ele>162.203751</ele>
        <time>2009-10-20T18:00:25Z</time>
      </trkpt>
      <trkpt lat="48.16112" lon="3.09649">
        <ele>168.911118</ele>
        <time>2009-10-20T18:00:25Z</time>
      </trkpt>
      <trkpt lat="48.16113" lon="3.09871">
        <ele>171</ele>
        <time>2009-10-20T18:00:25Z</time>
      </trkpt>
      <trkpt lat="48.1624" lon="3.10437">
        <ele>169.980057</ele>
        <time>2009-10-20T18:00:25Z</time>
      </trkpt>
      <trkpt lat="48.16178" lon="3.11226">
        <ele>173</ele>
        <time>2009-10-20T18:00:25Z</time>
      </trkpt>
      <trkpt lat="48.16277" lon="3.11543">
        <ele>173.050003</ele>
        <time>2009-10-20T18:00:25Z</time>
      </trkpt>
      <trkpt lat="48.16276" lon="3.11728">
        <ele>173.009933</ele>
        <time>2009-10-20T18:00:25Z</time>
      </trkpt>
      <trkpt lat="48.16449" lon="3.12124">
        <ele>173.050003</ele>
        <time>2009-10-20T18:00:25Z</time>
      </trkpt>
      <trkpt lat="48.16336" lon="3.12145">
        <ele>174</ele>
        <time>2009-10-20T18:00:25Z</time>
      </trkpt>
      <trkpt lat="48.16167" lon="3.12291">
        <ele>173.140869</ele>
        <time>2009-10-20T18:00:25Z</time>
      </trkpt>
      <trkpt lat="48.15983" lon="3.12201">
        <ele>172</ele>
        <time>2009-10-20T18:00:25Z</time>
      </trkpt>
      <trkpt lat="48.15882" lon="3.12206">
        <ele>172</ele>
        <time>2009-10-20T18:00:25Z</time>
      </trkpt>
      <trkpt lat="48.15835" lon="3.12128">
        <ele>173.699997</ele>
        <time>2009-10-20T18:00:25Z</time>
      </trkpt>
      <trkpt lat="48.15836" lon="3.11916">
        <ele>174</ele>
        <time>2009-10-20T18:00:25Z</time>
      </trkpt>
      <trkpt lat="48.15774" lon="3.11801">
        <ele>174</ele>
        <time>2009-10-20T18:00:25Z</time>
      </trkpt>
      <trkpt lat="48.15395" lon="3.12051">
        <ele>172</ele>
        <time>2009-10-20T18:00:25Z</time>
      </trkpt>
      <trkpt lat="48.14942" lon="3.12491">
        <ele>175.725632</ele>
        <time>2009-10-20T18:00:25Z</time>
      </trkpt>
      <trkpt lat="48.14871" lon="3.12362">
        <ele>175</ele>
        <time>2009-10-20T18:00:25Z</time>
      </trkpt>
      <trkpt lat="48.14642" lon="3.12275">
        <ele>174.860245</ele>
        <time>2009-10-20T18:00:25Z</time>
      </trkpt>
      <trkpt lat="48.14194" lon="3.12033">
        <ele>170.800003</ele>
        <time>2009-10-20T18:00:25Z</time>
      </trkpt>
      <trkpt lat="48.1397" lon="3.11969">
        <ele>172.199997</ele>
        <time>2009-10-20T18:00:25Z</time>
      </trkpt>
      <trkpt lat="48.13943" lon="3.11925">
        <ele>172.800003</ele>
        <time>2009-10-20T18:00:25Z</time>
      </trkpt>
      <trkpt lat="48.13732" lon="3.11908">
        <ele>175.52562</ele>
        <time>2009-10-20T18:00:25Z</time>
      </trkpt>
      <trkpt lat="48.13673" lon="3.12086">
        <ele>175</ele>
        <time>2009-10-20T18:00:25Z</time>
      </trkpt>
      <trkpt lat="48.13738" lon="3.12345">
        <ele>175.865372</ele>
        <time>2009-10-20T18:00:25Z</time>
      </trkpt>
      <trkpt lat="48.13662" lon="3.12606">
        <ele>177</ele>
        <time>2009-10-20T18:00:25Z</time>
      </trkpt>
      <trkpt lat="48.13681" lon="3.12815">
        <ele>178.051254</ele>
        <time>2009-10-20T18:00:25Z</time>
      </trkpt>
      <trkpt lat="48.13777" lon="3.1294">
        <ele>175.089188</ele>
        <time>2009-10-20T18:00:25Z</time>
      </trkpt>
      <trkpt lat="48.13654" lon="3.13214">
        <ele>175.573685</ele>
      </trkpt>
      <trkpt lat="48.13626" lon="3.13368">
        <ele>178.031693</ele>
        <time>2009-10-20T18:00:25Z</time>
      </trkpt>
      <trkpt lat="48.13757" lon="3.13545">
        <ele>184</ele>
        <time>2009-10-20T18:00:25Z</time>
      </trkpt>
      <trkpt lat="48.13827" lon="3.13579">
        <ele>186.699997</ele>
        <time>2009-10-20T18:00:25Z</time>
      </trkpt>
      <trkpt lat="48.13864" lon="3.13721">
        <ele>189</ele>
        <time>2009-10-20T18:00:25Z</time>
      </trkpt>
      <trkpt lat="48.13782" lon="3.1378">
        <ele>185</ele>
        <time>2009-10-20T18:00:25Z</time>
      </trkpt>
      <trkpt lat="48.13279" lon="3.13786">
        <ele>191</ele>
        <time>2009-10-20T18:00:25Z</time>
      </trkpt>
      <trkpt lat="48.13245" lon="3.1349">
        <ele>190</ele>
        <time>2009-10-20T18:00:25Z</time>
      </trkpt>
      <trkpt lat="48.13038" lon="3.1344">
        <ele>189.001251</ele>
      </trkpt>
      <trkpt lat="48.12897" lon="3.13431">
        <ele>189</ele>
      </trkpt>
      <trkpt lat="48.12794" lon="3.13396">
        <ele>188.401245</ele>
      </trkpt>
      <trkpt lat="48.1274" lon="3.13331">
        <ele>187.29332</ele>
      </trkpt>
      <trkpt lat="48.12603" lon="3.13322">
        <ele>186.351257</ele>
        <time>2009-10-20T18:00:25Z</time>
      </trkpt>
      <trkpt lat="48.12348" lon="3.13134">
        <ele>186</ele>
        <time>2009-10-20T18:00:25Z</time>
      </trkpt>
      <trkpt lat="48.12281" lon="3.13096">
        <ele>186</ele>
      </trkpt>
      <trkpt lat="48.12138" lon="3.12899">
        <ele>186.169754</ele>
        <time>2009-10-20T18:00:25Z</time>
      </trkpt>
      <trkpt lat="48.11858" lon="3.12868">
        <ele>180.949997</ele>
        <time>2009-10-20T18:00:25Z</time>
      </trkpt>
      <trkpt lat="48.11808" lon="3.12833">
        <ele>179.962311</ele>
      </trkpt>
      <trkpt lat="48.11861" lon="3.12639">
        <ele>182</ele>
        <time>2009-10-20T18:00:25Z</time>
      </trkpt>
      <trkpt lat="48.12003" lon="3.12276">
        <ele>189</ele>
        <time>2009-10-20T18:00:25Z</time>
      </trkpt>
      <trkpt lat="48.11807" lon="3.1237">
        <ele>184.648743</ele>
        <time>2009-10-20T18:00:25Z</time>
      </trkpt>
      <trkpt lat="48.11775" lon="3.11842">
        <ele>186.501251</ele>
        <time>2009-10-20T18:00:25Z</time>
      </trkpt>
      <trkpt lat="48.11932" lon="3.11422">
        <ele>186</ele>
        <time>2009-10-20T18:00:25Z</time>
      </trkpt>
      <trkpt lat="48.11821" lon="3.11299">
        <ele>180</ele>
        <time>2009-10-20T18:00:25Z</time>
      </trkpt>
      <trkpt lat="48.11965" lon="3.10939">
        <ele>178.101257</ele>
        <time>2009-10-20T18:00:25Z</time>
      </trkpt>
      <trkpt lat="48.12208" lon="3.10845">
        <ele>181.506378</ele>
      </trkpt>
      <trkpt lat="48.12344" lon="3.10739">
        <ele>180.880554</ele>
        <time>2009-10-20T18:00:25Z</time>
      </trkpt>
      <trkpt lat="48.12381" lon="3.10847">
        <ele>182</ele>
        <time>2009-10-20T18:00:25Z</time>
      </trkpt>
      <trkpt lat="48.12501" lon="3.10785">
        <ele>180.222443</ele>
      </trkpt>
      <trkpt lat="48.12616" lon="3.10784">
        <ele>180.551254</ele>
      </trkpt>
      <trkpt lat="48.12869" lon="3.10546">
        <ele>177.907379</ele>
      </trkpt>
      <trkpt lat="48.13347" lon="3.10301">
        <ele>173.501251</ele>
        <time>2009-10-20T18:00:25Z</time>
      </trkpt>
      <trkpt lat="48.1368" lon="3.10245">
        <ele>173</ele>
        <time>2009-10-20T18:00:25Z</time>
      </trkpt>
      <trkpt lat="48.13686" lon="3.10024">
        <ele>167.204758</ele>
      </trkpt>
      <trkpt lat="48.13665" lon="3.09872">
        <ele>163.248749</ele>
        <time>2009-10-20T18:00:25Z</time>
      </trkpt>
      <trkpt lat="48.13656" lon="3.09744">
        <ele>166.371872</ele>
      </trkpt>
      <trkpt lat="48.13673" lon="3.09688">
        <ele>168.846436</ele>
      </trkpt>
      <trkpt lat="48.13769" lon="3.09672">
        <ele>170.248749</ele>
        <time>2009-10-20T18:00:25Z</time>
      </trkpt>
      <trkpt lat="48.13916" lon="3.09577">
        <ele>168.147507</ele>
      </trkpt>
      <trkpt lat="48.14401" lon="3.09006">
        <ele>166</ele>
        <time>2009-10-20T18:00:25Z</time>
      </trkpt>
      <trkpt lat="48.14503" lon="3.09165">
        <ele>164.711563</ele>
        <time>2009-10-20T18:00:25Z</time>
      </trkpt>
      <trkpt lat="48.14593" lon="3.09137">
        <ele>163.75</ele>
        <time>2009-10-20T18:00:25Z</time>
      </trkpt>
      <trkpt lat="48.14587" lon="3.09056">
        <ele>163</ele>
        <time>2009-10-20T18:00:25Z</time>
      </trkpt>
      <trkpt lat="48.14587" lon="3.09056">
        <ele>163</ele>
        <time>2009-10-20T18:00:25Z</time>
      </trkpt>
    </trkseg>
  </trk>
</gpx>